Location: Cheyres
(46.8153°N, 6.7877°E)
Time: 22:24:06
(UTC+00:00)

NANOSAT C BR1 - Pass Details

Date: 30 June 2022
Orbit: 584 x 599 km, 98.0° (Epoch: 13 August)

Event Time Altitude Azimuth Distance (km) Brightness Sun altitude
Rises 02:38:41 0° 3° (N) 2,848 ? -8.8°
Reaches altitude 10° 02:41:04 10° 352° (N) 1,944 ? -8.6°
Maximum altitude 02:44:39 28° 294° (WNW) 1,145 ? -8.1°
Drops below altitude 10° 02:48:14 10° 235° (SW) 1,937 ? -7.7°
Enters shadow 02:48:22 - 234° (SW) 1,987 ? -7.7°
